MXW YSHL-YSSY

Flight info

Callsign MXW
Flight time 0h 24m
Altitude 1500
Route YSHL JIBN DLPT YSSY
Aircraft B06/L-S/S

Departure

Time 2026-04-23 10:35
Airport Shellharbour Airport (YSHL)

Arrival

Time 2026-04-23 11:00
Airport Sydney Kingsford Smith International Airport (YSSY)
Time Latitude Longitude Altitude Speed Heading
2026-04-23 10:20 -34.55851 150.78940 29 ft 0 kts 348°
2026-04-23 10:32 -34.55855 150.78942 37 ft 1 kts 339°
2026-04-23 10:33 -34.55841 150.78925 34 ft 6 kts 258°
2026-04-23 10:33 -34.55848 150.78858 39 ft 10 kts 261°
2026-04-23 10:33 -34.55859 150.78780 29 ft 1 kts 268°
2026-04-23 10:34 -34.55858 150.78780 35 ft 1 kts 266°
2026-04-23 10:34 -34.55863 150.78765 62 ft 10 kts 262°
2026-04-23 10:34 -34.56044 150.78737 93 ft 54 kts 168°
2026-04-23 10:35 -34.56561 150.78875 136 ft 85 kts 165°
2026-04-23 10:35 -34.57072 150.79159 444 ft 76 kts 135°
2026-04-23 10:35 -34.57251 150.79715 688 ft 76 kts 90°
2026-04-23 10:35 -34.57172 150.80385 823 ft 86 kts 83°
2026-04-23 10:36 -34.57101 150.81157 866 ft 98 kts 84°
2026-04-23 10:36 -34.56988 150.82007 910 ft 108 kts 78°
2026-04-23 10:36 -34.56792 150.82947 897 ft 121 kts 76°
2026-04-23 10:36 -34.56546 150.83930 907 ft 118 kts 73°
2026-04-23 10:37 -34.56242 150.84846 889 ft 111 kts 66°
2026-04-23 10:37 -34.55955 150.85589 900 ft 84 kts 67°
2026-04-23 10:37 -34.55713 150.86134 911 ft 68 kts 63°
2026-04-23 10:37 -34.55408 150.86617 1093 ft 77 kts 49°
2026-04-23 10:38 -34.54947 150.86964 1283 ft 79 kts 31°
2026-04-23 10:38 -34.54432 150.87215 1456 ft 80 kts 26°
2026-04-23 10:38 -34.53916 150.87451 1607 ft 85 kts 28°
2026-04-23 10:38 -34.53278 150.87775 1557 ft 112 kts 26°
2026-04-23 10:39 -34.52554 150.88139 1571 ft 114 kts 27°
2026-04-23 10:39 -34.51824 150.88519 1570 ft 114 kts 27°
2026-04-23 10:39 -34.51071 150.88866 1572 ft 117 kts 22°
2026-04-23 10:39 -34.50271 150.89138 1571 ft 121 kts 17°
2026-04-23 10:40 -34.49444 150.89394 1573 ft 124 kts 17°
2026-04-23 10:40 -34.48603 150.89654 1574 ft 126 kts 18°
2026-04-23 10:40 -34.47756 150.89916 1572 ft 126 kts 18°
2026-04-23 10:40 -34.46911 150.90183 1570 ft 125 kts 18°
2026-04-23 10:41 -34.46084 150.90452 1571 ft 122 kts 18°
2026-04-23 10:41 -34.45266 150.90714 1573 ft 121 kts 18°
2026-04-23 10:41 -34.44453 150.90981 1573 ft 120 kts 18°
2026-04-23 10:41 -34.43645 150.91251 1574 ft 120 kts 19°
2026-04-23 10:42 -34.42839 150.91522 1576 ft 121 kts 18°
2026-04-23 10:42 -34.42022 150.91795 1573 ft 123 kts 19°
2026-04-23 10:42 -34.41199 150.92069 1571 ft 123 kts 18°
2026-04-23 10:42 -34.40378 150.92344 1573 ft 122 kts 20°
2026-04-23 10:43 -34.39556 150.92611 1573 ft 122 kts 18°
2026-04-23 10:43 -34.38735 150.92877 1570 ft 122 kts 19°
2026-04-23 10:43 -34.37915 150.93145 1569 ft 121 kts 19°
2026-04-23 10:43 -34.37101 150.93410 1576 ft 122 kts 18°
2026-04-23 10:44 -34.36279 150.93682 1572 ft 123 kts 18°
2026-04-23 10:44 -34.35453 150.93960 1575 ft 124 kts 19°
2026-04-23 10:44 -34.34626 150.94240 1575 ft 123 kts 19°
2026-04-23 10:44 -34.33795 150.94518 1575 ft 124 kts 19°
2026-04-23 10:45 -34.32963 150.94799 1573 ft 124 kts 19°
2026-04-23 10:45 -34.32134 150.95079 1573 ft 123 kts 19°
2026-04-23 10:45 -34.31315 150.95350 1573 ft 122 kts 19°
2026-04-23 10:45 -34.30502 150.95617 1575 ft 121 kts 18°
2026-04-23 10:46 -34.29715 150.95944 1576 ft 119 kts 27°
2026-04-23 10:46 -34.28996 150.96433 1577 ft 119 kts 37°
2026-04-23 10:46 -34.28298 150.96983 1575 ft 120 kts 38°
2026-04-23 10:46 -34.27605 150.97543 1575 ft 120 kts 38°
2026-04-23 10:47 -34.26913 150.98105 1577 ft 120 kts 38°
2026-04-23 10:47 -34.26220 150.98666 1570 ft 120 kts 38°
2026-04-23 10:47 -34.25516 150.99226 1569 ft 122 kts 37°
2026-04-23 10:47 -34.24804 150.99785 1570 ft 122 kts 37°
2026-04-23 10:48 -34.24104 151.00370 1567 ft 122 kts 42°
2026-04-23 10:48 -34.23483 151.01055 1567 ft 120 kts 49°
2026-04-23 10:48 -34.22905 151.01771 1567 ft 119 kts 52°
2026-04-23 10:48 -34.22337 151.02489 1568 ft 118 kts 52°
2026-04-23 10:49 -34.21760 151.03214 1568 ft 121 kts 51°
2026-04-23 10:49 -34.21178 151.03940 1565 ft 120 kts 51°
2026-04-23 10:49 -34.20594 151.04656 1566 ft 119 kts 51°
2026-04-23 10:49 -34.20011 151.05356 1568 ft 118 kts 49°
2026-04-23 10:50 -34.19435 151.06062 1560 ft 116 kts 50°
2026-04-23 10:50 -34.18860 151.06746 1567 ft 117 kts 49°
2026-04-23 10:50 -34.18280 151.07433 1566 ft 118 kts 49°
2026-04-23 10:50 -34.17697 151.08130 1564 ft 118 kts 50°
2026-04-23 10:51 -34.17111 151.08818 1562 ft 118 kts 50°
2026-04-23 10:51 -34.16527 151.09507 1562 ft 116 kts 51°
2026-04-23 10:51 -34.15949 151.10194 1565 ft 117 kts 49°
2026-04-23 10:51 -34.15369 151.10882 1565 ft 117 kts 50°
2026-04-23 10:52 -34.14772 151.11579 1561 ft 120 kts 49°
2026-04-23 10:52 -34.14172 151.12279 1563 ft 121 kts 49°
2026-04-23 10:52 -34.13564 151.12992 1562 ft 122 kts 48°
2026-04-23 10:52 -34.12960 151.13705 1560 ft 120 kts 50°
2026-04-23 10:53 -34.12358 151.14412 1560 ft 121 kts 50°
2026-04-23 10:53 -34.11773 151.15111 1565 ft 120 kts 49°
2026-04-23 10:53 -34.11178 151.15828 1564 ft 121 kts 50°
2026-04-23 10:53 -34.10540 151.16489 1563 ft 122 kts 37°
2026-04-23 10:54 -34.09763 151.16912 1519 ft 123 kts 21°
2026-04-23 10:54 -34.08927 151.17127 1470 ft 122 kts
2026-04-23 10:54 -34.08072 151.17083 1388 ft 126 kts 353°
2026-04-23 10:54 -34.07202 151.16879 1272 ft 129 kts 349°
2026-04-23 10:55 -34.06333 151.16630 1075 ft 129 kts 348°
2026-04-23 10:55 -34.05475 151.16385 910 ft 125 kts 348°
2026-04-23 10:55 -34.04621 151.16162 701 ft 125 kts 351°
2026-04-23 10:55 -34.03771 151.15954 596 ft 124 kts 352°
2026-04-23 10:56 -34.03206 151.15827 496 ft 126 kts 352°
2026-04-23 10:56 -34.02347 151.15628 473 ft 124 kts 353°
2026-04-23 10:56 -34.01249 151.15377 460 ft 114 kts 352°
2026-04-23 10:56 -34.00768 151.15259 466 ft 98 kts 352°
2026-04-23 10:57 -34.00170 151.15158 470 ft 75 kts
2026-04-23 10:57 -33.99677 151.15178 495 ft 78 kts 12°
2026-04-23 10:57 -33.99053 151.15253 478 ft 99 kts 11°
2026-04-23 10:57 -33.98324 151.15346 467 ft 110 kts 11°
2026-04-23 10:58 -33.97570 151.15461 472 ft 108 kts 17°
2026-04-23 10:58 -33.96855 151.15703 473 ft 106 kts 23°
2026-04-23 10:58 -33.96178 151.15998 471 ft 103 kts 27°
2026-04-23 10:58 -33.95512 151.16321 421 ft 103 kts 33°
2026-04-23 10:59 -33.94977 151.16833 426 ft 94 kts 45°
2026-04-23 10:59 -33.94516 151.17345 331 ft 84 kts 55°
2026-04-23 10:59 -33.94227 151.17869 283 ft 71 kts 77°
2026-04-23 10:59 -33.94040 151.18433 231 ft 69 kts 76°
2026-04-23 11:00 -33.93894 151.18859 141 ft 34 kts 82°
2026-04-23 11:00 -33.93864 151.19046 94 ft 14 kts 122°
2026-04-23 11:00 -33.93897 151.19081 37 ft 2 kts 160°
2026-04-23 11:00 -33.93904 151.19084 26 ft 1 kts 166°
2026-04-23 11:01 -33.93910 151.19085 30 ft 2 kts 105°
2026-04-23 11:01 -33.93924 151.19134 29 ft 9 kts 140°
2026-04-23 11:02 -33.93987 151.19145 34 ft 12 kts 212°
2026-04-23 11:02 -33.94049 151.19085 36 ft 5 kts 246°
2026-04-23 11:02 -33.94061 151.19088 28 ft 2 kts 152°
2026-04-23 11:02 -33.94074 151.19098 28 ft 0 kts 153°